N601EC KPIE-KPGD

Flight info

Callsign N601EC
Flight time N/A
Altitude 5000
Route CEXAN
Aircraft C172/L-SFG/C

Departure

Time 2026-04-30 22:21
Airport St. Petersburg Clearwater International Airport (KPIE)

Arrival

Time N/A
Airport Punta Gorda Airport (KPGD)
Time Latitude Longitude Altitude Speed Heading
2026-04-30 22:17 27.90195 -82.68859 15 ft 6 kts 357°
2026-04-30 22:17 27.90262 -82.68871 16 ft 13 kts 350°
2026-04-30 22:17 27.90465 -82.68905 16 ft 19 kts 352°
2026-04-30 22:18 27.90588 -82.68923 17 ft 17 kts 326°
2026-04-30 22:18 27.90743 -82.68799 17 ft 18 kts 36°
2026-04-30 22:19 27.90837 -82.68487 17 ft 30 kts 71°
2026-04-30 22:19 27.90910 -82.68232 14 ft 36 kts 66°
2026-04-30 22:19 27.91283 -82.67844 18 ft 30 kts 46°
2026-04-30 22:20 27.91229 -82.67787 19 ft 10 kts 193°
2026-04-30 22:20 27.90819 -82.68134 42 ft 69 kts 231°
2026-04-30 22:20 27.90433 -82.68496 251 ft 70 kts 226°
2026-04-30 22:21 27.90022 -82.68844 486 ft 82 kts 227°
2026-04-30 22:21 27.89494 -82.69161 796 ft 80 kts 212°
2026-04-30 22:21 27.88996 -82.69525 881 ft 91 kts 227°
2026-04-30 22:21 27.88484 -82.70017 952 ft 102 kts 225°
2026-04-30 22:22 27.87864 -82.70435 1002 ft 111 kts 191°
2026-04-30 22:22 27.87099 -82.70104 1054 ft 126 kts 152°
2026-04-30 22:22 27.86422 -82.69450 1071 ft 132 kts 145°
2026-04-30 22:22 27.85747 -82.68758 1205 ft 129 kts 144°
2026-04-30 22:23 27.85087 -82.68110 1314 ft 123 kts 143°
2026-04-30 22:23 27.84450 -82.67498 1432 ft 117 kts 143°
2026-04-30 22:23 27.83838 -82.66922 1543 ft 112 kts 145°
2026-04-30 22:23 27.83235 -82.66363 1642 ft 112 kts 147°
2026-04-30 22:24 27.82633 -82.65816 1755 ft 109 kts 149°
2026-04-30 22:24 27.82050 -82.65291 1868 ft 105 kts 150°
2026-04-30 22:24 27.81493 -82.64789 1995 ft 100 kts 149°
2026-04-30 22:24 27.80959 -82.64307 2114 ft 97 kts 147°
2026-04-30 22:25 27.80437 -82.63842 2226 ft 95 kts 150°
2026-04-30 22:25 27.79928 -82.63389 2335 ft 92 kts 148°
2026-04-30 22:25 27.79420 -82.62933 2460 ft 94 kts 151°
2026-04-30 22:25 27.78911 -82.62485 2533 ft 86 kts 151°
2026-04-30 22:26 27.77478 -82.62209 479 ft 113 kts 201°
2026-04-30 22:26 27.76690 -82.62488 28 ft 112 kts 184°
2026-04-30 22:26 27.76072 -82.62496 10 ft 51 kts 150°
2026-04-30 22:27 27.75989 -82.62470 4 ft 0 kts 348°